User: anonymous   Login
Location: Fontevrault
(47.1823°N, 0.0493°E)
Time: 12:41:39
(UTC+00:00)
Language:

Cosmos 1726 - Orbit

View from above orbital plane
View from above orbital plane
View from above satellite
View from above satellite

Ground track
Ground track

The orbit data is extracted from the following two-line orbital elements,

1 16495U 86006A   21265.48026201  .00001625  00000-0  61566-4 0  9996
2 16495  82.4709 305.5290 0013781 121.0203 239.2390 15.26075427953497
Epoch (UTC): 22 September 2021 11:31:34
Eccentricity: 0.0013781
inclination: 82.4709°
perigee height: 478 km
apogee height: 497 km
right ascension of ascending node: 305.5290°
argument of perigee: 121.0203°
revolutions per day: 15.26075427
mean anomaly at epoch: 239.2390°
orbit number at epoch: 95349

The dashed part of the orbit path shows where the satellite is in the earth's shadow,  

DLR